Time,TemperatureF,DewpointF,PressureIn,WindDirection,WindDirectionDegrees,WindSpeedMPH,WindSpeedGustMPH,Humidity,HourlyPrecipIn,Conditions,Clouds,dailyrainin,SoftwareType,DateUTC
2013-02-20 00:02:00,31.0,15.0,-100.00,WSW,250,4.0,8.0,51,0.00,,,-99.99,,2013-02-20 05:02:00,
2013-02-20 00:12:00,31.0,15.0,-100.00,WSW,250,4.0,9.0,51,0.00,,,-99.99,,2013-02-20 05:12:00,
2013-02-20 00:22:00,31.0,16.0,-100.00,NW,315,6.0,15.0,53,0.00,,,-99.99,,2013-02-20 05:22:00,
2013-02-20 00:32:00,30.0,16.0,-100.00,NW,320,8.0,15.0,54,0.00,,,-99.99,,2013-02-20 05:32:00,
2013-02-20 00:43:00,30.0,16.0,-100.00,NW,320,7.0,16.0,55,0.00,,,-99.99,,2013-02-20 05:43:00,
2013-02-20 00:52:00,30.0,16.0,-100.00,NW,305,7.0,14.0,56,0.00,,,-99.99,,2013-02-20 05:52:00,
2013-02-20 01:02:00,29.0,15.0,-100.00,WNW,300,8.0,16.0,55,0.00,,,-99.99,,2013-02-20 06:02:00,
2013-02-20 01:11:00,29.0,15.0,-100.00,NW,325,5.0,15.0,53,0.00,,,-99.99,,2013-02-20 06:11:00,
2013-02-20 01:21:00,29.0,13.0,-100.00,WNW,295,6.0,16.0,51,0.00,,,-99.99,,2013-02-20 06:21:00,
2013-02-20 01:32:00,29.0,14.0,-100.00,WNW,300,5.0,12.0,52,0.00,,,-99.99,,2013-02-20 06:32:00,
2013-02-20 01:42:00,29.0,13.0,-100.00,NW,305,6.0,17.0,51,0.00,,,-99.99,,2013-02-20 06:42:00,
2013-02-20 01:51:00,29.0,13.0,-100.00,West,265,2.0,12.0,51,0.00,,,-99.99,,2013-02-20 06:51:00,
2013-02-20 02:02:00,29.0,13.0,-100.00,NW,305,6.0,11.0,52,0.00,,,-99.99,,2013-02-20 07:02:00,
2013-02-20 02:11:00,29.0,14.0,-100.00,West,280,2.0,11.0,52,0.00,,,-99.99,,2013-02-20 07:11:00,
2013-02-20 02:21:00,29.0,14.0,-100.00,WNW,295,3.0,12.0,52,0.00,,,-99.99,,2013-02-20 07:21:00,
2013-02-20 02:32:00,29.0,14.0,-100.00,NW,305,6.0,12.0,53,0.00,,,-99.99,,2013-02-20 07:32:00,
2013-02-20 02:42:00,29.0,14.0,-100.00,West,260,6.0,12.0,53,0.00,,,-99.99,,2013-02-20 07:42:00,
2013-02-20 02:51:00,29.0,14.0,-100.00,NW,305,6.0,11.0,54,0.00,,,-99.99,,2013-02-20 07:51:00,
2013-02-20 03:05:00,29.0,14.0,-100.00,WNW,295,6.0,11.0,54,0.00,,,-99.99,,2013-02-20 08:05:00,
2013-02-20 03:11:00,28.0,15.0,-100.00,WNW,300,5.0,16.0,56,0.00,,,-99.99,,2013-02-20 08:11:00,
2013-02-20 03:21:00,28.0,16.0,-100.00,NW,305,4.0,9.0,58,0.00,,,-99.99,,2013-02-20 08:21:00,
2013-02-20 03:31:00,28.0,15.0,-100.00,NW,310,4.0,12.0,58,0.00,,,-99.99,,2013-02-20 08:31:00,
2013-02-20 03:41:00,28.0,15.0,-100.00,NW,320,6.0,11.0,58,0.00,,,-99.99,,2013-02-20 08:41:00,
2013-02-20 03:52:00,28.0,15.0,-100.00,West,275,4.0,10.0,58,0.00,,,-99.99,,2013-02-20 08:52:00,
2013-02-20 04:02:00,28.0,16.0,-100.00,West,260,5.0,10.0,59,0.00,,,-99.99,,2013-02-20 09:02:00,
2013-02-20 04:21:00,28.0,14.0,-100.00,West,260,6.0,17.0,55,0.00,,,-99.99,,2013-02-20 09:21:00,
2013-02-20 04:32:00,28.0,15.0,-100.00,West,265,5.0,12.0,56,0.00,,,-99.99,,2013-02-20 09:32:00,
2013-02-20 04:42:00,28.0,14.0,-100.00,West,260,5.0,11.0,55,0.00,,,-99.99,,2013-02-20 09:42:00,
2013-02-20 04:51:00,28.0,14.0,-100.00,WSW,250,5.0,12.0,55,0.00,,,-99.99,,2013-02-20 09:51:00,
2013-02-20 05:01:00,28.0,12.0,-100.00,WSW,240,8.0,14.0,52,0.00,,,-99.99,,2013-02-20 10:01:00,
2013-02-20 05:12:00,28.0,12.0,-100.00,WSW,250,6.0,14.0,52,0.00,,,-99.99,,2013-02-20 10:12:00,
2013-02-20 05:22:00,27.0,12.0,-100.00,WSW,250,6.0,16.0,52,0.00,,,-99.99,,2013-02-20 10:22:00,
2013-02-20 05:32:00,28.0,13.0,-100.00,WSW,255,6.0,14.0,54,0.00,,,-99.99,,2013-02-20 10:32:00,
2013-02-20 05:42:00,28.0,13.0,-100.00,West,270,5.0,11.0,54,0.00,,,-99.99,,2013-02-20 10:42:00,
2013-02-20 05:51:00,28.0,14.0,-100.00,West,280,3.0,11.0,55,0.00,,,-99.99,,2013-02-20 10:51:00,
2013-02-20 06:02:00,27.0,15.0,-100.00,NW,305,7.0,12.0,60,0.00,,,-99.99,,2013-02-20 11:02:00,
2013-02-20 06:11:00,27.0,15.0,-100.00,WNW,295,6.0,15.0,60,0.00,,,-99.99,,2013-02-20 11:11:00,
2013-02-20 06:21:00,26.0,14.0,-100.00,NW,310,6.0,16.0,59,0.00,,,-99.99,,2013-02-20 11:21:00,
2013-02-20 06:32:00,27.0,14.0,-100.00,WNW,285,5.0,11.0,58,0.00,,,-99.99,,2013-02-20 11:32:00,
2013-02-20 06:42:00,27.0,13.0,-100.00,West,280,3.0,12.0,55,0.00,,,-99.99,,2013-02-20 11:42:00,
2013-02-20 06:52:00,27.0,14.0,-100.00,West,270,4.0,9.0,56,0.00,,,-99.99,,2013-02-20 11:52:00,
2013-02-20 07:02:00,27.0,13.0,-100.00,WSW,240,4.0,10.0,56,0.00,,,-99.99,,2013-02-20 12:02:00,
2013-02-20 07:12:00,26.0,13.0,-100.00,West,270,6.0,16.0,55,0.00,,,-99.99,,2013-02-20 12:12:00,
2013-02-20 07:21:00,27.0,13.0,-100.00,West,270,3.0,9.0,54,0.00,,,-99.99,,2013-02-20 12:21:00,
2013-02-20 07:32:00,26.0,13.0,-100.00,NW,310,6.0,14.0,55,0.00,,,-99.99,,2013-02-20 12:32:00,
2013-02-20 07:42:00,26.0,12.0,-100.00,West,280,6.0,12.0,55,0.00,,,-99.99,,2013-02-20 12:42:00,
2013-02-20 07:52:00,26.0,11.0,-100.00,WNW,295,3.0,13.0,52,0.00,,,-99.99,,2013-02-20 12:52:00,
2013-02-20 08:01:00,26.0,11.0,-100.00,WNW,285,5.0,14.0,52,0.00,,,-99.99,,2013-02-20 13:01:00,
2013-02-20 08:11:00,27.0,12.0,-100.00,West,270,3.0,8.0,53,0.00,,,-99.99,,2013-02-20 13:11:00,
2013-02-20 08:22:00,26.0,12.0,-100.00,WNW,300,6.0,12.0,53,0.00,,,-99.99,,2013-02-20 13:22:00,
2013-02-20 08:32:00,27.0,12.0,-100.00,WNW,295,3.0,10.0,54,0.00,,,-99.99,,2013-02-20 13:32:00,
2013-02-20 08:42:00,26.0,12.0,-100.00,NW,310,6.0,12.0,54,0.00,,,-99.99,,2013-02-20 13:42:00,
2013-02-20 08:51:00,27.0,14.0,-100.00,WSW,255,4.0,8.0,56,0.00,,,-99.99,,2013-02-20 13:51:00,
2013-02-20 09:01:00,27.0,13.0,-100.00,West,275,6.0,9.0,56,0.00,,,-99.99,,2013-02-20 14:01:00,
2013-02-20 09:11:00,27.0,13.0,-100.00,NW,310,7.0,11.0,54,0.00,,,-99.99,,2013-02-20 14:11:00,
2013-02-20 09:21:00,27.0,13.0,-100.00,WSW,255,6.0,12.0,54,0.00,,,-99.99,,2013-02-20 14:21:00,
2013-02-20 09:32:00,27.0,13.0,-100.00,SW,235,7.0,14.0,54,0.00,,,-99.99,,2013-02-20 14:32:00,
2013-02-20 09:42:00,27.0,12.0,-100.00,West,275,6.0,11.0,51,0.00,,,-99.99,,2013-02-20 14:42:00,
2013-02-20 09:52:00,28.0,12.0,-100.00,WSW,250,6.0,12.0,52,0.00,,,-99.99,,2013-02-20 14:52:00,
2013-02-20 10:02:00,27.0,12.0,-100.00,NW,315,6.0,11.0,52,0.00,,,-99.99,,2013-02-20 15:02:00,
2013-02-20 10:11:00,28.0,13.0,-100.00,West,265,4.0,11.0,52,0.00,,,-99.99,,2013-02-20 15:11:00,
2013-02-20 10:22:00,28.0,13.0,-100.00,West,265,4.0,16.0,52,0.00,,,-99.99,,2013-02-20 15:22:00,
2013-02-20 10:32:00,28.0,12.0,-100.00,WSW,245,7.0,13.0,50,0.00,,,-99.99,,2013-02-20 15:32:00,
2013-02-20 10:42:00,28.0,12.0,-100.00,WNW,295,6.0,12.0,49,0.00,,,-99.99,,2013-02-20 15:42:00,
2013-02-20 10:52:00,28.0,12.0,-100.00,West,270,6.0,12.0,50,0.00,,,-99.99,,2013-02-20 15:52:00,
2013-02-20 11:01:00,29.0,12.0,-100.00,WSW,250,7.0,12.0,48,0.00,,,-99.99,,2013-02-20 16:01:00,
2013-02-20 11:12:00,28.0,12.0,-100.00,NW,305,4.0,12.0,48,0.00,,,-99.99,,2013-02-20 16:12:00,
2013-02-20 11:21:00,29.0,12.0,-100.00,NW,305,6.0,12.0,50,0.00,,,-99.99,,2013-02-20 16:21:00,
2013-02-20 11:32:00,30.0,13.0,-100.00,West,270,3.0,11.0,49,0.00,,,-99.99,,2013-02-20 16:32:00,
2013-02-20 11:42:00,28.0,13.0,-100.00,West,280,6.0,11.0,51,0.00,,,-99.99,,2013-02-20 16:42:00,
2013-02-20 11:52:00,30.0,13.0,-100.00,WSW,250,4.0,9.0,48,0.00,,,-99.99,,2013-02-20 16:52:00,
2013-02-20 12:01:00,29.0,12.0,-100.00,West,265,6.0,13.0,49,0.00,,,-99.99,,2013-02-20 17:01:00,
2013-02-20 12:11:00,30.0,13.0,-100.00,WSW,240,5.0,14.0,47,0.00,,,-99.99,,2013-02-20 17:11:00,
2013-02-20 12:21:00,30.0,13.0,-100.00,WNW,300,6.0,13.0,47,0.00,,,-99.99,,2013-02-20 17:21:00,
2013-02-20 12:32:00,30.0,14.0,-100.00,NW,320,11.0,14.0,51,0.00,,,-99.99,,2013-02-20 17:32:00,
2013-02-20 12:42:00,29.0,13.0,-100.00,West,270,4.0,16.0,50,0.00,,,-99.99,,2013-02-20 17:42:00,
2013-02-20 12:52:00,30.0,13.0,-100.00,WNW,300,6.0,14.0,47,0.00,,,-99.99,,2013-02-20 17:52:00,
2013-02-20 13:02:00,30.0,14.0,-100.00,NW,310,10.0,13.0,49,0.00,,,-99.99,,2013-02-20 18:02:00,
2013-02-20 13:11:00,31.0,14.0,-100.00,NW,310,9.0,16.0,48,0.00,,,-99.99,,2013-02-20 18:11:00,
2013-02-20 13:21:00,31.0,13.0,-100.00,NW,315,7.0,16.0,46,0.00,,,-99.99,,2013-02-20 18:21:00,
2013-02-20 13:32:00,31.0,13.0,-100.00,NW,325,9.0,17.0,46,0.00,,,-99.99,,2013-02-20 18:32:00,
2013-02-20 13:42:00,32.0,13.0,-100.00,NW,325,9.0,16.0,46,0.00,,,-99.99,,2013-02-20 18:42:00,
2013-02-20 13:52:00,33.0,13.0,-100.00,NW,310,7.0,14.0,44,0.00,,,-99.99,,2013-02-20 18:52:00,
2013-02-20 14:01:00,33.0,14.0,-100.00,NW,315,9.0,15.0,43,0.00,,,-99.99,,2013-02-20 19:01:00,
2013-02-20 14:11:00,34.0,13.0,-100.00,NW,315,7.0,15.0,42,0.00,,,-99.99,,2013-02-20 19:11:00,
2013-02-20 14:21:00,33.0,13.0,-100.00,WNW,295,6.0,14.0,43,0.00,,,-99.99,,2013-02-20 19:21:00,
2013-02-20 14:31:00,35.0,14.0,-100.00,NW,305,6.0,12.0,41,0.00,,,-99.99,,2013-02-20 19:31:00,
2013-02-20 14:41:00,34.0,13.0,-100.00,WSW,255,9.0,19.0,39,0.00,,,-99.99,,2013-02-20 19:41:00,
2013-02-20 14:52:00,35.0,13.0,-100.00,West,260,6.0,12.0,40,0.00,,,-99.99,,2013-02-20 19:52:00,
2013-02-20 15:01:00,34.0,12.0,-100.00,WNW,290,9.0,13.0,40,0.00,,,-99.99,,2013-02-20 20:01:00,
2013-02-20 15:11:00,34.0,14.0,-100.00,NW,325,9.0,17.0,41,0.00,,,-99.99,,2013-02-20 20:11:00,
2013-02-20 15:21:00,36.0,13.0,-100.00,WNW,300,7.0,12.0,38,0.00,,,-99.99,,2013-02-20 20:21:00,
2013-02-20 15:31:00,35.0,13.0,-100.00,NW,310,9.0,12.0,39,0.00,,,-99.99,,2013-02-20 20:31:00,
2013-02-20 15:41:00,35.0,13.0,-100.00,WNW,295,6.0,16.0,38,0.00,,,-99.99,,2013-02-20 20:41:00,
2013-02-20 15:51:00,35.0,12.0,-100.00,NW,315,9.0,13.0,39,0.00,,,-99.99,,2013-02-20 20:51:00,
2013-02-20 16:01:00,35.0,13.0,-100.00,NW,310,6.0,14.0,38,0.00,,,-99.99,,2013-02-20 21:01:00,
2013-02-20 16:11:00,35.0,12.0,-100.00,NW,305,7.0,17.0,38,0.00,,,-99.99,,2013-02-20 21:11:00,
2013-02-20 16:21:00,34.0,12.0,-100.00,NW,320,9.0,16.0,38,0.00,,,-99.99,,2013-02-20 21:21:00,
2013-02-20 16:31:00,35.0,12.0,-100.00,NW,305,7.0,18.0,37,0.00,,,-99.99,,2013-02-20 21:31:00,
2013-02-20 16:42:00,35.0,13.0,-100.00,NW,325,7.0,14.0,38,0.00,,,-99.99,,2013-02-20 21:42:00,
2013-02-20 16:51:00,35.0,12.0,-100.00,NW,305,9.0,17.0,37,0.00,,,-99.99,,2013-02-20 21:51:00,
2013-02-20 17:02:00,34.0,12.0,-100.00,NW,310,6.0,16.0,38,0.00,,,-99.99,,2013-02-20 22:02:00,
2013-02-20 17:11:00,34.0,12.0,-100.00,NW,310,6.0,14.0,39,0.00,,,-99.99,,2013-02-20 22:11:00,
2013-02-20 17:21:00,34.0,11.0,-100.00,NW,320,7.0,12.0,38,0.00,,,-99.99,,2013-02-20 22:21:00,
2013-02-20 17:31:00,34.0,12.0,-100.00,NW,315,7.0,14.0,39,0.00,,,-99.99,,2013-02-20 22:31:00,
2013-02-20 17:42:00,34.0,11.0,-100.00,NW,310,7.0,12.0,39,0.00,,,-99.99,,2013-02-20 22:42:00,
2013-02-20 17:51:00,34.0,12.0,-100.00,West,260,2.0,6.0,39,0.00,,,-99.99,,2013-02-20 22:51:00,
2013-02-20 18:01:00,33.0,12.0,-100.00,NW,305,3.0,9.0,40,0.00,,,-99.99,,2013-02-20 23:01:00,
2013-02-20 18:12:00,33.0,12.0,-100.00,West,280,3.0,8.0,41,0.00,,,-99.99,,2013-02-20 23:12:00,
2013-02-20 18:22:00,33.0,12.0,-100.00,WNW,290,4.0,7.0,42,0.00,,,-99.99,,2013-02-20 23:22:00,
2013-02-20 18:32:00,32.0,13.0,-100.00,NNW,340,1.0,6.0,43,0.00,,,-99.99,,2013-02-20 23:32:00,
2013-02-20 18:42:00,32.0,12.0,-100.00,WNW,300,3.0,6.0,42,0.00,,,-99.99,,2013-02-20 23:42:00,
2013-02-20 18:52:00,31.0,13.0,-100.00,NNW,345,0.0,3.0,45,0.00,,,-99.99,,2013-02-20 23:52:00,
2013-02-20 19:03:00,31.0,13.0,-100.00,ENE,60,1.0,4.0,47,0.00,,,-99.99,,2013-02-21 00:03:00,
2013-02-20 19:11:00,31.0,13.0,-100.00,North,5,1.0,4.0,47,0.00,,,-99.99,,2013-02-21 00:11:00,
2013-02-20 19:22:00,31.0,13.0,-100.00,NW,305,2.0,6.0,47,0.00,,,-99.99,,2013-02-21 00:22:00,
2013-02-20 19:32:00,30.0,13.0,-100.00,NNW,330,0.0,3.0,49,0.00,,,-99.99,,2013-02-21 00:32:00,
2013-02-20 19:42:00,30.0,13.0,-100.00,NW,325,1.0,4.0,50,0.00,,,-99.99,,2013-02-21 00:42:00,
2013-02-20 19:52:00,29.0,13.0,-100.00,South,175,1.0,5.0,50,0.00,,,-99.99,,2013-02-21 00:52:00,
2013-02-20 20:01:00,29.0,13.0,-100.00,NNE,25,0.0,2.0,51,0.00,,,-99.99,,2013-02-21 01:01:00,
2013-02-20 20:11:00,28.0,14.0,-100.00,NNW,330,0.0,4.0,55,0.00,,,-99.99,,2013-02-21 01:11:00,
2013-02-20 20:21:00,28.0,14.0,-100.00,North,5,0.0,3.0,56,0.00,,,-99.99,,2013-02-21 01:21:00,
2013-02-20 20:32:00,27.0,14.0,-100.00,North,10,1.0,3.0,57,0.00,,,-99.99,,2013-02-21 01:32:00,
2013-02-20 20:42:00,27.0,14.0,-100.00,NNE,20,0.0,3.0,56,0.00,,,-99.99,,2013-02-21 01:42:00,
2013-02-20 20:51:00,27.0,13.0,-100.00,SE,140,0.0,3.0,56,0.00,,,-99.99,,2013-02-21 01:51:00,
2013-02-20 21:02:00,26.0,13.0,-100.00,NNW,330,0.0,3.0,57,0.00,,,-99.99,,2013-02-21 02:02:00,
2013-02-20 21:11:00,26.0,13.0,-100.00,ENE,70,0.0,4.0,57,0.00,,,-99.99,,2013-02-21 02:11:00,
2013-02-20 21:21:00,26.0,13.0,-100.00,North,5,0.0,2.0,57,0.00,,,-99.99,,2013-02-21 02:21:00,
2013-02-20 21:32:00,25.0,13.0,-100.00,NNW,335,0.0,3.0,58,0.00,,,-99.99,,2013-02-21 02:32:00,
2013-02-20 21:42:00,25.0,13.0,-100.00,NNW,335,0.0,3.0,58,0.00,,,-99.99,,2013-02-21 02:42:00,
2013-02-20 21:51:00,25.0,13.0,-100.00,NNW,335,0.0,3.0,58,0.00,,,-99.99,,2013-02-21 02:51:00,
2013-02-20 22:02:00,25.0,13.0,-100.00,SE,145,0.0,2.0,59,0.00,,,-99.99,,2013-02-21 03:02:00,
2013-02-20 22:12:00,25.0,13.0,-100.00,WNW,285,0.0,1.0,59,0.00,,,-99.99,,2013-02-21 03:12:00,
2013-02-20 22:21:00,25.0,12.0,-100.00,East,100,0.0,2.0,59,0.00,,,-99.99,,2013-02-21 03:21:00,
2013-02-20 22:32:00,24.0,13.0,-100.00,ENE,75,0.0,2.0,60,0.00,,,-99.99,,2013-02-21 03:32:00,
2013-02-20 22:42:00,24.0,12.0,-100.00,NNE,25,0.0,1.0,60,0.00,,,-99.99,,2013-02-21 03:42:00,
2013-02-20 22:51:00,24.0,13.0,-100.00,North,0,0.0,2.0,62,0.00,,,-99.99,,2013-02-21 03:51:00,
2013-02-20 23:01:00,24.0,13.0,-100.00,ENE,75,0.0,2.0,61,0.00,,,-99.99,,2013-02-21 04:01:00,
2013-02-20 23:11:00,23.0,12.0,-100.00,East,100,0.0,0.0,62,0.00,,,-99.99,,2013-02-21 04:11:00,
2013-02-20 23:22:00,23.0,12.0,-100.00,WNW,290,0.0,1.0,62,0.00,,,-99.99,,2013-02-21 04:22:00,
2013-02-20 23:32:00,23.0,12.0,-100.00,SW,215,0.0,0.0,64,0.00,,,-99.99,,2013-02-21 04:32:00,
2013-02-20 23:42:00,22.0,13.0,-100.00,NE,45,0.0,0.0,65,0.00,,,-99.99,,2013-02-21 04:42:00,
2013-02-20 23:52:00,22.0,13.0,-100.00,NNE,20,0.0,1.0,66,0.00,,,-99.99,,2013-02-21 04:52:00,